FENGYUN 1C DEB

Satellite information

Favourite Embed

Satellite Type and Status

DEBRISIN ORBIT

Key statistics

Satellite FENGYUN 1C DEB at a glance.

Uptime

9665

Days in orbit

Revolutions

≈ 14.2

Per day

Orbit

SSO

Sun Synchronous Orbit

Inclination

98.6

Latest

Satellite identification and parameters

Extended collection of information and parameters for FENGYUN 1C DEB.

Object identification

Identified? True

Debris? True

Object name: FENGYUN 1C DEB

International designator: 1999-025DLT

Object number (NORAD): 35139

Object ID (CCSDS): 35139

Country: PEOPLES REPUBLIC OF CHINA (PRC)

Current information (Y/N): Y

RCS size: SMALL

Orbital parameters

Period: 101.34 minutes

Inclination: 98.5855 deg

SMA: 7200.27 km

Apoapsis: 872.686 km

Periapsis: 771.583 km

RAAN: 300.4944 deg

Eccentricy: 0.0070208

Argument of periapsis: 90.6793 deg

Mean anomaly: 270.2429 deg

Mean motion: 14.20952727 rev/day

Mean motion (dot): 0.00001273 rev/day2

B* drag term: 0.00059226845 1/REarth

Two-line elements (TLE)

Creation date: Oct. 21, 2025, 3:26 a.m.

Reference frame: TEME

Reference center: EARTH

Epoch: Oct. 20, 2025, 6:44 p.m. UTC

TLE line 0: 0 FENGYUN 1C DEB

TLE line 1: 1 35139U 99025DLT 25293.78087236 .00001273 00000-0 59227-3 0 9999

TLE line 2: 2 35139 98.5855 300.4944 0070208 90.6793 270.2429 14.20952727634017

Live tracking on map

Real-time ground track for satellite FENGYUN 1C DEB.

In-orbit conjunctions

A list of the most updated potential collisions computed for object FENGYUN 1C DEB.

Target Orbit TCA Probability of collision Miss distance Type
COSMOS 2112 LEO 2025-05-27 04:23:36 0.0001408098 715.0 (m) PAYLOAD
DELTA 1 DEB SSO 2025-05-24 08:40:14 0.0001104509 605.0 (m) DEBRIS
CZ-6A DEB LEO 2024-10-15 18:24:19 0.0003507877 619.0 (m) DEBRIS
COSMOS 1275 DEB LEO 2024-09-27 17:23:26 0.002184685 5.0 (m) DEBRIS

Associated space launch

Chinese polar orbiting meteorological satellite

FENGYUN 1C DEB was lifted into orbit during the mission ‘Long March 4B | Feng Yun 1C’, on board a Long March 4B space rocket.

The launch took place on May 10, 1999, 1:33 a.m. from Launch Complex 7.

For more information about the launch, click the button.

Launch to space Long March 4B | Feng Yun 1C
Long March 4B | Feng Yun 1C

Agency: N/A

Status: Launch Successful

Launch date: May 10, 1999, 1:33 a.m. UTC

Rocket: Long March 4B

Launch pad: Launch Complex 7

Location: Taiyuan Satellite Launch Center, People's Republic of China

...

Latest news about this satellite

There are no fresh news available about this satellite. Check back as we update our databases every day.


Newsletter sign-up

Weekly statistics, charts and insights to help you stay on top of the space industry.